timestamp,wind_dir_avg,wind_spd_max_dir,wind_spd_avg,wind_spd_gust,battery_voltage,lat,long
2018-03-07 00:00:00+00:00,56.0,63.0,16.76,22.61,,47.59359,-54.27349
2018-03-07 00:10:00+00:00,58.0,59.0,16.59,19.92,,47.59359,-54.27349
2018-03-07 00:20:00+00:00,57.0,62.0,17.95,24.93,,47.59359,-54.27349
2018-03-07 00:30:00+00:00,59.0,65.0,16.59,23.36,,47.59359,-54.27349
2018-03-07 00:40:00+00:00,55.0,55.0,16.9,20.02,,47.59359,-54.27349
2018-03-07 00:50:00+00:00,57.0,54.0,15.38,17.26,,47.59359,-54.27349
2018-03-07 01:00:00+00:00,58.0,58.0,15.38,16.67,,47.59359,-54.27349
2018-03-07 01:10:00+00:00,55.0,52.0,15.87,17.89,,47.59359,-54.27349
2018-03-07 01:20:00+00:00,56.0,53.0,15.51,17.55,,47.59359,-54.27349
2018-03-07 01:30:00+00:00,56.0,56.0,16.24,19.1,,47.59359,-54.27349
2018-03-07 01:40:00+00:00,56.0,53.0,15.47,17.64,,47.59359,-54.27349
2018-03-07 01:50:00+00:00,53.0,51.0,14.38,18.15,,47.59359,-54.27349
2018-03-07 02:00:00+00:00,56.0,58.0,16.44,20.05,,47.59359,-54.27349
2018-03-07 02:10:00+00:00,54.0,61.0,15.99,18.6,,47.59359,-54.27349
2018-03-07 02:20:00+00:00,54.0,53.0,15.12,18.12,,47.59359,-54.27349
2018-03-07 02:30:00+00:00,56.0,54.0,15.76,17.82,,47.59359,-54.27349
2018-03-07 02:40:00+00:00,54.0,57.0,16.22,19.24,,47.59359,-54.27349
2018-03-07 02:50:00+00:00,53.0,52.0,15.31,17.16,,47.59359,-54.27349
2018-03-07 03:00:00+00:00,54.0,56.0,15.01,17.06,,47.59359,-54.27349
2018-03-07 03:10:00+00:00,50.0,50.0,16.77,18.69,,47.59359,-54.27349
2018-03-07 03:20:00+00:00,52.0,55.0,14.59,16.63,,47.59359,-54.27349
2018-03-07 03:30:00+00:00,52.0,53.0,15.18,16.97,,47.59359,-54.27349
2018-03-07 03:40:00+00:00,52.0,53.0,15.12,16.73,,47.59359,-54.27349
2018-03-07 03:50:00+00:00,52.0,54.0,15.35,18.58,,47.59359,-54.27349
2018-03-07 04:00:00+00:00,50.0,48.0,15.04,16.98,,47.59359,-54.27349
2018-03-07 04:10:00+00:00,55.0,56.0,13.97,16.43,,47.59359,-54.27349
2018-03-07 04:20:00+00:00,49.0,50.0,15.08,17.81,,47.59359,-54.27349
2018-03-07 04:30:00+00:00,53.0,49.0,14.38,17.81,,47.59359,-54.27349
2018-03-07 04:40:00+00:00,53.0,53.0,14.92,16.77,,47.59359,-54.27349
2018-03-07 04:50:00+00:00,52.0,53.0,15.28,17.56,,47.59359,-54.27349
2018-03-07 05:00:00+00:00,55.0,61.0,14.16,16.42,,47.59359,-54.27349
2018-03-07 05:10:00+00:00,51.0,54.0,15.32,17.35,,47.59359,-54.27349
2018-03-07 05:20:00+00:00,51.0,47.0,15.46,17.75,,47.59359,-54.27349
2018-03-07 05:30:00+00:00,51.0,45.0,15.42,17.85,,47.59359,-54.27349
2018-03-07 05:40:00+00:00,52.0,45.0,15.59,18.64,,47.59359,-54.27349
2018-03-07 05:50:00+00:00,52.0,50.0,16.95,19.36,,47.59359,-54.27349
2018-03-07 06:00:00+00:00,51.0,51.0,15.86,18.91,,47.59359,-54.27349
2018-03-07 06:10:00+00:00,51.0,55.0,15.7,18.87,,47.59359,-54.27349
2018-03-07 06:20:00+00:00,51.0,49.0,16.67,18.85,,47.59359,-54.27349
2018-03-07 06:30:00+00:00,53.0,52.0,15.16,18.21,,47.59359,-54.27349
2018-03-07 06:40:00+00:00,51.0,52.0,15.74,18.44,,47.59359,-54.27349
2018-03-07 06:50:00+00:00,51.0,47.0,16.7,20.16,,47.59359,-54.27349
2018-03-07 07:00:00+00:00,51.0,50.0,17.15,19.95,,47.59359,-54.27349
2018-03-07 07:10:00+00:00,50.0,44.0,16.61,18.88,,47.59359,-54.27349
2018-03-07 07:20:00+00:00,52.0,46.0,16.1,18.74,,47.59359,-54.27349
2018-03-07 07:30:00+00:00,53.0,53.0,16.03,19.14,,47.59359,-54.27349
2018-03-07 07:40:00+00:00,52.0,53.0,15.03,17.36,,47.59359,-54.27349
2018-03-07 07:50:00+00:00,47.0,44.0,17.09,19.14,,47.59359,-54.27349
2018-03-07 08:00:00+00:00,48.0,40.0,17.57,20.37,,47.59359,-54.27349
2018-03-07 08:10:00+00:00,51.0,49.0,15.88,18.1,,47.59359,-54.27349
2018-03-07 08:20:00+00:00,52.0,52.0,16.53,19.15,,47.59359,-54.27349
2018-03-07 08:30:00+00:00,53.0,58.0,17.43,20.7,,47.59359,-54.27349
2018-03-07 08:40:00+00:00,53.0,52.0,16.6,18.84,,47.59359,-54.27349
2018-03-07 08:50:00+00:00,52.0,51.0,16.07,18.3,,47.59359,-54.27349
2018-03-07 09:00:00+00:00,53.0,53.0,15.91,18.04,,47.59359,-54.27349
2018-03-07 09:10:00+00:00,56.0,52.0,15.32,17.97,,47.59359,-54.27349
2018-03-07 09:20:00+00:00,53.0,56.0,15.55,17.96,,47.59359,-54.27349
2018-03-07 09:30:00+00:00,52.0,53.0,15.81,18.27,,47.59359,-54.27349
2018-03-07 09:40:00+00:00,54.0,54.0,15.54,17.95,,47.59359,-54.27349
2018-03-07 09:50:00+00:00,54.0,59.0,15.24,17.8,,47.59359,-54.27349
2018-03-07 10:00:00+00:00,55.0,59.0,15.02,17.32,,47.59359,-54.27349
2018-03-07 10:10:00+00:00,53.0,53.0,15.33,18.28,,47.59359,-54.27349
2018-03-07 10:20:00+00:00,56.0,55.0,16.77,20.4,,47.59359,-54.27349
2018-03-07 10:30:00+00:00,56.0,54.0,17.81,21.98,,47.59359,-54.27349
2018-03-07 10:40:00+00:00,52.0,50.0,15.5,19.54,,47.59359,-54.27349
2018-03-07 10:50:00+00:00,55.0,50.0,14.47,16.87,,47.59359,-54.27349
2018-03-07 11:00:00+00:00,46.0,42.0,15.58,18.33,,47.59359,-54.27349
2018-03-07 11:10:00+00:00,55.0,53.0,13.6,16.24,,47.59359,-54.27349
2018-03-07 11:20:00+00:00,55.0,52.0,12.21,15.07,,47.59359,-54.27349
2018-03-07 11:30:00+00:00,55.0,55.0,15.86,17.96,,47.59359,-54.27349
2018-03-07 11:40:00+00:00,50.0,50.0,16.83,19.3,,47.59359,-54.27349
2018-03-07 11:50:00+00:00,56.0,60.0,15.21,19.55,,47.59359,-54.27349
2018-03-07 12:00:00+00:00,57.0,59.0,15.15,18.06,,47.59359,-54.27349
2018-03-07 12:10:00+00:00,57.0,55.0,16.04,17.78,,47.59359,-54.27349
2018-03-07 12:20:00+00:00,59.0,55.0,16.68,18.62,,47.59359,-54.27349
2018-03-07 12:30:00+00:00,57.0,59.0,17.62,20.06,,47.59359,-54.27349
2018-03-07 12:40:00+00:00,58.0,56.0,17.13,18.81,,47.59359,-54.27349
2018-03-07 12:50:00+00:00,58.0,52.0,17.37,19.21,,47.59359,-54.27349
2018-03-07 13:00:00+00:00,61.0,57.0,16.78,18.51,,47.59359,-54.27349
2018-03-07 13:10:00+00:00,60.0,58.0,16.92,18.64,,47.59359,-54.27349
2018-03-07 13:20:00+00:00,62.0,58.0,16.37,18.06,,47.59359,-54.27349
2018-03-07 13:30:00+00:00,56.0,55.0,16.93,18.24,,47.59359,-54.27349
2018-03-07 13:40:00+00:00,59.0,56.0,16.63,18.25,,47.59359,-54.27349
2018-03-07 13:50:00+00:00,59.0,60.0,15.99,17.64,,47.59359,-54.27349
2018-03-07 14:00:00+00:00,61.0,61.0,16.66,17.7,,47.59359,-54.27349
2018-03-07 14:10:00+00:00,63.0,66.0,15.61,17.56,,47.59359,-54.27349
2018-03-07 14:20:00+00:00,60.0,61.0,14.78,17.3,,47.59359,-54.27349
2018-03-07 14:30:00+00:00,58.0,60.0,16.29,17.56,,47.59359,-54.27349
2018-03-07 14:40:00+00:00,59.0,60.0,16.18,17.47,,47.59359,-54.27349
2018-03-07 14:50:00+00:00,57.0,57.0,15.57,17.63,,47.59359,-54.27349
2018-03-07 15:00:00+00:00,57.0,54.0,15.8,17.88,,47.59359,-54.27349
2018-03-07 15:10:00+00:00,63.0,59.0,14.65,16.54,,47.59359,-54.27349
2018-03-07 15:20:00+00:00,55.0,52.0,15.28,17.56,,47.59359,-54.27349
2018-03-07 15:30:00+00:00,56.0,57.0,15.5,17.34,,47.59359,-54.27349
2018-03-07 15:40:00+00:00,55.0,54.0,14.69,17.28,,47.59359,-54.27349
2018-03-07 15:50:00+00:00,54.0,52.0,15.49,17.59,,47.59359,-54.27349
2018-03-07 16:00:00+00:00,56.0,53.0,14.0,16.36,,47.59359,-54.27349
2018-03-07 16:10:00+00:00,54.0,56.0,14.72,16.22,,47.59359,-54.27349
2018-03-07 16:20:00+00:00,59.0,70.0,14.42,18.08,,47.59359,-54.27349
2018-03-07 16:30:00+00:00,61.0,58.0,14.28,16.48,,47.59359,-54.27349
2018-03-07 16:40:00+00:00,62.0,63.0,14.69,16.42,,47.59359,-54.27349
2018-03-07 16:50:00+00:00,61.0,59.0,13.03,14.91,,47.59359,-54.27349
2018-03-07 17:00:00+00:00,57.0,55.0,14.64,15.75,,47.59359,-54.27349
2018-03-07 17:10:00+00:00,59.0,55.0,14.76,16.72,,47.59359,-54.27349
2018-03-07 17:20:00+00:00,61.0,59.0,14.14,16.75,,47.59359,-54.27349
2018-03-07 17:30:00+00:00,61.0,64.0,13.0,14.92,,47.59359,-54.27349
2018-03-07 17:40:00+00:00,63.0,67.0,14.86,17.29,,47.59359,-54.27349
2018-03-07 17:50:00+00:00,61.0,66.0,12.95,15.6,,47.59359,-54.27349
2018-03-07 18:00:00+00:00,54.0,54.0,12.07,14.58,,47.59359,-54.27349
2018-03-07 18:10:00+00:00,52.0,52.0,11.21,12.71,,47.59359,-54.27349
2018-03-07 18:20:00+00:00,54.0,55.0,14.07,16.03,,47.59359,-54.27349
2018-03-07 18:30:00+00:00,52.0,51.0,14.5,16.48,,47.59359,-54.27349
2018-03-07 18:40:00+00:00,53.0,56.0,13.05,15.07,,47.59359,-54.27349
2018-03-07 18:50:00+00:00,53.0,51.0,13.02,15.07,,47.59359,-54.27349
2018-03-07 19:00:00+00:00,53.0,58.0,11.83,13.84,,47.59359,-54.27349
2018-03-07 19:10:00+00:00,53.0,54.0,13.58,15.12,,47.59359,-54.27349
2018-03-07 19:20:00+00:00,53.0,58.0,10.66,13.94,,47.59359,-54.27349
2018-03-07 19:30:00+00:00,52.0,53.0,12.75,14.96,,47.59359,-54.27349
2018-03-07 19:40:00+00:00,59.0,56.0,12.18,14.65,,47.59359,-54.27349
2018-03-07 19:50:00+00:00,48.0,50.0,12.92,15.01,,47.59359,-54.27349
2018-03-07 20:00:00+00:00,48.0,49.0,12.59,15.72,,47.59359,-54.27349
2018-03-07 20:10:00+00:00,50.0,53.0,12.56,14.94,,47.59359,-54.27349
2018-03-07 20:20:00+00:00,47.0,51.0,12.35,14.37,,47.59359,-54.27349
2018-03-07 20:30:00+00:00,54.0,52.0,11.53,13.18,,47.59359,-54.27349
2018-03-07 20:40:00+00:00,52.0,53.0,11.83,14.72,,47.59359,-54.27349
2018-03-07 20:50:00+00:00,52.0,54.0,12.9,15.25,,47.59359,-54.27349
2018-03-07 21:00:00+00:00,54.0,56.0,14.41,15.57,,47.59359,-54.27349
2018-03-07 21:10:00+00:00,54.0,58.0,12.56,15.1,,47.59359,-54.27349
2018-03-07 21:20:00+00:00,55.0,55.0,14.07,15.59,,47.59359,-54.27349
2018-03-07 21:30:00+00:00,55.0,56.0,11.82,14.82,,47.59359,-54.27349
2018-03-07 21:40:00+00:00,56.0,59.0,12.16,13.59,,47.59359,-54.27349
2018-03-07 21:50:00+00:00,55.0,53.0,13.31,15.08,,47.59359,-54.27349
2018-03-07 22:00:00+00:00,52.0,49.0,11.32,13.43,,47.59359,-54.27349
2018-03-07 22:10:00+00:00,50.0,51.0,12.62,14.69,,47.59359,-54.27349
2018-03-07 22:20:00+00:00,50.0,54.0,12.02,14.62,,47.59359,-54.27349
2018-03-07 22:30:00+00:00,51.0,55.0,13.72,15.78,,47.59359,-54.27349
2018-03-07 22:40:00+00:00,49.0,45.0,12.5,14.4,,47.59359,-54.27349
2018-03-07 22:50:00+00:00,48.0,52.0,13.7,15.56,,47.59359,-54.27349
2018-03-07 23:00:00+00:00,49.0,53.0,12.71,14.72,,47.59359,-54.27349
2018-03-07 23:10:00+00:00,54.0,54.0,14.29,16.07,,47.59359,-54.27349
2018-03-07 23:20:00+00:00,49.0,53.0,14.67,16.46,,47.59359,-54.27349
2018-03-07 23:30:00+00:00,47.0,51.0,13.29,16.8,,47.59359,-54.27349
2018-03-07 23:40:00+00:00,52.0,56.0,13.1,15.52,,47.59359,-54.27349
2018-03-07 23:50:00+00:00,44.0,48.0,11.7,13.61,,47.59359,-54.27349
